Spokane Fairchild, WA
on Monday, December 24, 2012

Monday
Previous Day Next Day
Daily Summary
 ActualAverage (KGEG)Record (KGEG)
Temperature
Mean Temperature °F 26°F  
Max Temperature 32°F 31°F 55°F (1919)
Min Temperature 23°F 22°F -12°F (1884)
Degree Days
Heating Degree Days 38 39  
Month to date heating degree days 901  
Since 1 July heating degree days 2568  
Cooling Degree Days 0 0  
Month to date cooling degree days 0  
Year to date cooling degree days 450  
Moisture
Dew Point 28°F   
Average Humidity 100    
Maximum Humidity 100    
Minimum Humidity 100    
Precipitation
Precipitation 0.04 in 0.07 in 0.62 in (1936)
Month to date precipitation 1.84  
Year to date precipitation 16.10  
Snow
Snow 0.00 in 0.50 in 6.10 in (2008)
Month to date snowfall 10.9  
Since 1 July snowfall 18.4  
Snow Depth in   
Wind
Wind Speed 7 mph   
Max Wind Speed 17 mph   
Max Gust Speed 23 mph   
Visibility 3 miles   
Events Fog , Rain , Snow   

Key: T is trace of precipitation, MM is missing value
Source: NWS Daily Summary
Time(PST)TemperatureDew PointHumidity Pressure Visibility Wind DirectionWind SpeedGust SpeedPrecipitationEvents Conditions
12:03 AM 32.0°F 32.0°F 100% 29.60 in 2.0 miles SE 3.5 mph - N/A Snow Light Snow
12:08 AM 32.0°F 32.0°F 100% 29.60 in 2.0 miles Variable 3.5 mph - N/A Snow Light Snow
12:23 AM 32.0°F 32.0°F 100% 29.60 in 3.0 miles South 9.2 mph - N/A Snow Light Snow
12:38 AM 32.0°F 32.0°F 100% 29.61 in 4.0 miles South 8.1 mph - N/A Snow Light Snow
12:48 AM 32.0°F 32.0°F 100% 29.61 in 3.0 miles South 10.4 mph - N/A Snow Light Snow
12:58 AM 32.0°F 32.0°F 100% 29.68 in 2.5 miles SSW 16.1 mph 23.0 mph 0.00 in Snow Light Snow
1:03 AM 32.0°F 32.0°F 100% 29.62 in 2.0 miles South 16.1 mph 23.0 mph N/A Snow Light Snow
1:08 AM 30.2°F 30.2°F 100% 29.62 in 1.8 miles SSW 15.0 mph 23.0 mph N/A Snow Light Snow
1:13 AM 30.2°F 30.2°F 100% 29.63 in 2.5 miles SSW 17.3 mph - N/A Snow Light Snow
1:18 AM 30.2°F 30.2°F 100% 29.63 in 3.0 miles SSW 15.0 mph - N/A Snow Light Snow
1:28 AM 30.2°F 30.2°F 100% 29.63 in 4.0 miles SSW 12.7 mph - N/A Snow Light Snow
1:33 AM 30.2°F 30.2°F 100% 29.64 in 4.0 miles SSW 11.5 mph - N/A Snow Light Snow
1:48 AM 30.2°F 30.2°F 100% 29.64 in 2.5 miles South 12.7 mph - N/A Snow Light Snow
1:58 AM 28.4°F 28.4°F 100% 29.72 in 2.0 miles South 10.4 mph - 0.01 in Snow Light Snow
2:18 AM 30.2°F 30.2°F 100% 29.65 in 3.0 miles South 9.2 mph - N/A Snow Light Snow
2:43 AM 30.2°F 30.2°F 100% 29.66 in 3.0 miles South 9.2 mph - N/A Snow Light Snow
2:48 AM 30.2°F 30.2°F 100% 29.66 in 3.0 miles South 10.4 mph - N/A Snow Light Snow
2:58 AM 29.5°F 29.5°F 100% 29.72 in 3.0 miles South 9.2 mph - 0.00 in Snow Light Snow
3:28 AM 30.2°F 30.2°F 100% 29.67 in 5.0 miles South 6.9 mph - N/A Snow Light Snow
3:53 AM 30.2°F 30.2°F 100% 29.67 in 3.0 miles SSE 5.8 mph - N/A Snow Light Snow
3:58 AM 29.5°F 29.5°F 100% 29.74 in 3.0 miles SSE 6.9 mph - 0.00 in Snow Light Snow
4:03 AM 30.2°F 30.2°F 100% 29.68 in 2.5 miles SE 5.8 mph - N/A Snow Light Snow
4:33 AM 28.4°F 28.4°F 100% 29.69 in 2.0 miles SE 5.8 mph - N/A Snow Light Snow
4:58 AM 29.1°F 29.1°F 100% 29.77 in 2.5 miles East 3.5 mph - 0.02 in Snow Light Snow
5:08 AM 28.4°F 28.4°F 100% 29.70 in 3.0 miles East 3.5 mph - N/A Snow Light Snow
5:13 AM 28.4°F 28.4°F 100% 29.71 in 3.0 miles ENE 3.5 mph - N/A Snow Light Snow
5:18 AM 28.4°F 28.4°F 100% 29.71 in 3.0 miles NE 4.6 mph - N/A Snow Light Snow
5:23 AM 28.4°F 28.4°F 100% 29.71 in 3.0 miles NE 3.5 mph - N/A Snow Light Snow
5:33 AM 28.4°F 28.4°F 100% 29.72 in 2.5 miles NNE 4.6 mph - N/A Snow Light Snow
5:48 AM 28.4°F 28.4°F 100% 29.73 in 2.5 miles NNE 5.8 mph - N/A Snow Light Snow
5:53 AM 28.4°F 28.4°F 100% 29.73 in 3.0 miles NNE 5.8 mph - N/A Snow Light Snow
5:58 AM 28.2°F 28.2°F 100% 29.80 in 4.0 miles NNE 5.8 mph - 0.00 in Snow Light Snow
6:03 AM 28.4°F 28.4°F 100% 29.74 in 4.0 miles North 5.8 mph - N/A Snow Light Snow
6:13 AM 28.4°F 28.4°F 100% 29.74 in 5.0 miles North 5.8 mph - N/A Snow Light Snow
6:18 AM 28.4°F 28.4°F 100% 29.74 in 5.0 miles North 6.9 mph - N/A Snow Light Snow
6:23 AM 28.4°F 28.4°F 100% 29.75 in 6.0 miles North 5.8 mph - N/A Snow Light Snow
6:58 AM 29.1°F 29.1°F 100% 29.84 in 9.0 miles North 4.6 mph - 0.00 in Snow Light Snow
7:33 AM 28.4°F 28.4°F 100% 29.79 in 6.0 miles North 5.8 mph - N/A Snow Light Snow
7:58 AM 28.4°F 28.4°F 100% 29.89 in 6.0 miles NNW 4.6 mph - 0.01 in Snow Light Snow
8:28 AM 30.2°F 30.2°F 100% 29.84 in 6.0 miles NW 5.8 mph - N/A   Overcast
8:43 AM 30.2°F 30.2°F 100% 29.85 in 10.0 miles NNW 6.9 mph - N/A   Overcast
8:48 AM 28.4°F 28.4°F 100% 29.85 in 10.0 miles NNW 5.8 mph - N/A   Mostly Cloudy
8:58 AM 28.6°F 28.6°F 100% 29.94 in 10.0 miles North 5.8 mph - 0.00 in   Overcast
9:48 AM 24.8°F 24.8°F 100% 29.90 in 1.0 miles West 4.6 mph - N/A   Partly Cloudy
9:53 AM 24.8°F 24.8°F 100% 29.91 in 0.2 miles WSW 8.1 mph - N/A Fog Light Freezing Fog
9:58 AM 24.8°F 24.8°F 100% 30.00 in 0.2 miles WSW 10.4 mph - N/A Fog Light Freezing Fog
10:01 AM 26.6°F 26.6°F 100% 29.91 in 0.2 miles West 10.4 mph - N/A Fog Light Freezing Fog
10:11 AM 26.6°F 26.6°F 100% 29.92 in 0.2 miles West 8.1 mph - N/A Fog Light Freezing Fog
10:22 AM 26.6°F 26.6°F 100% 29.92 in 0.2 miles West 8.1 mph - N/A Fog Light Freezing Fog
10:32 AM 26.6°F 26.6°F 100% 29.92 in 0.5 miles WNW 8.1 mph - N/A Fog Light Freezing Drizzle
10:42 AM 28.4°F 28.4°F 100% 29.93 in 0.2 miles WNW 8.1 mph - N/A Fog , Rain Light Freezing Rain
10:58 AM 28.6°F 28.6°F 100% 30.02 in 0.2 miles West 8.1 mph - 0.00 in Fog , Rain Light Freezing Rain
11:16 AM 30.2°F 30.2°F 100% 29.94 in 0.2 miles West 8.1 mph - N/A Fog Light Freezing Fog
11:26 AM 30.2°F 30.2°F 100% 29.94 in 0.5 miles WNW 8.1 mph - N/A Fog Light Freezing Fog
11:31 AM 28.4°F 28.4°F 100% 29.94 in 1.5 miles WNW 9.2 mph - N/A   Overcast
11:36 AM 28.4°F 28.4°F 100% 29.94 in 7.0 miles WNW 8.1 mph - N/A   Mostly Cloudy
11:46 AM 28.4°F 28.4°F 100% 29.94 in 10.0 miles West 5.8 mph - N/A   Scattered Clouds
11:58 AM 28.8°F 28.8°F 100% 30.03 in 10.0 miles West 5.8 mph - 0.00 in   Partly Cloudy
12:58 PM 27.7°F 27.7°F 100% 30.05 in 10.0 miles West 5.8 mph - N/A   Mostly Cloudy
1:43 PM 28.4°F 28.4°F 100% 29.98 in 10.0 miles West 8.1 mph - N/A   Scattered Clouds
1:53 PM 30.2°F 30.2°F 100% 29.99 in 7.0 miles West 4.6 mph - N/A   Mostly Cloudy
1:58 PM 30.2°F 30.2°F 100% 30.07 in 3.0 miles WSW 4.6 mph - N/A   Mostly Cloudy
2:03 PM 28.4°F 28.4°F 100% 30.00 in 0.8 miles West 4.6 mph - N/A   Mist
2:05 PM 28.4°F 28.4°F 100% 30.00 in 0.5 miles West 4.6 mph - N/A Fog Light Freezing Fog
2:10 PM 28.4°F 28.4°F 100% 30.00 in 0.2 miles WSW 6.9 mph - N/A Fog Light Freezing Fog
2:20 PM 28.4°F 28.4°F 100% 30.01 in 0.2 miles SW 6.9 mph - N/A Fog Light Freezing Fog
2:22 PM 28.4°F 28.4°F 100% 30.01 in 0.2 miles SW 8.1 mph - N/A Fog , Rain Light Freezing Rain
2:37 PM 30.2°F 30.2°F 100% 30.02 in 0.2 miles SSW 5.8 mph - N/A Fog , Rain Light Freezing Rain
2:41 PM 30.2°F 30.2°F 100% 30.02 in 0.2 miles SW 6.9 mph - N/A Fog Light Freezing Fog
2:46 PM 28.4°F 28.4°F 100% 30.02 in 0.5 miles SSW 5.8 mph - N/A Fog Light Freezing Fog
2:51 PM 28.4°F 28.4°F 100% 30.02 in 0.8 miles SSW 5.8 mph - N/A   Mist
2:56 PM 28.4°F 28.4°F 100% 30.02 in 1.8 miles SSW 5.8 mph - N/A   Overcast
2:58 PM 28.4°F 28.4°F 100% 30.10 in 2.0 miles SSW 5.8 mph - 0.00 in   Overcast
3:03 PM 28.4°F 28.4°F 100% 30.03 in 7.0 miles SW 5.8 mph - N/A   Overcast
3:33 PM 28.4°F 28.4°F 100% 30.04 in 10.0 miles SSW 6.9 mph - N/A   Overcast
3:50 PM 28.4°F 28.4°F 100% 30.05 in 10.0 miles SW 8.1 mph - N/A   Overcast
3:58 PM 29.5°F 29.5°F 100% 30.13 in 10.0 miles SW 6.9 mph - 0.00 in   Overcast
4:08 PM 30.2°F 30.2°F 100% 30.06 in 10.0 miles SW 9.2 mph - N/A   Overcast
4:11 PM 30.2°F 30.2°F 100% 30.06 in 10.0 miles SW 8.1 mph - N/A   Overcast
4:16 PM 30.2°F 30.2°F 100% 30.06 in 10.0 miles SW 8.1 mph - N/A   Overcast
4:21 PM 30.2°F 30.2°F 100% 30.06 in 10.0 miles SW 8.1 mph - N/A   Overcast
4:26 PM 30.2°F 30.2°F 100% 30.06 in 10.0 miles SW 8.1 mph - N/A   Overcast
4:39 PM 30.2°F 30.2°F 100% 30.06 in 10.0 miles SW 5.8 mph - N/A   Overcast
4:58 PM 29.1°F 29.1°F 100% 30.16 in 10.0 miles WSW 5.8 mph - 0.00 in   Overcast
5:08 PM 26.6°F 26.6°F 100% 30.07 in 10.0 miles SW 3.5 mph - N/A   Overcast
5:13 PM 26.6°F 26.6°F 100% 30.07 in 10.0 miles SSW 3.5 mph - N/A   Overcast
5:43 PM 24.8°F 24.8°F 100% 30.08 in 1.2 miles SSE 3.5 mph - N/A   Mostly Cloudy
5:48 PM 24.8°F 24.8°F 100% 30.08 in 0.5 miles South 3.5 mph - N/A Fog Light Freezing Fog
5:53 PM 24.8°F 24.8°F 100% 30.08 in 0.2 miles South 3.5 mph - N/A Fog Light Freezing Fog
5:55 PM 23.0°F 23.0°F 100% 30.08 in 0.2 miles South 3.5 mph - N/A Fog Light Freezing Fog
5:57 PM 23.0°F 23.0°F 100% 30.08 in 0.2 miles South 4.6 mph - N/A Fog , Rain Light Freezing Rain
5:58 PM 23.0°F 23.0°F 100% 30.17 in 0.2 miles South 4.6 mph - N/A Fog , Rain Light Freezing Rain
5:59 PM 24.8°F 24.8°F 100% 30.08 in 0.2 miles South 4.6 mph - N/A Fog , Rain Light Freezing Rain
6:09 PM 24.8°F 24.8°F 100% 30.08 in 0.5 miles SSW 5.8 mph - N/A Fog , Rain Light Freezing Rain
6:14 PM 24.8°F 24.8°F 100% 30.08 in 0.5 miles SSW 5.8 mph - N/A Fog , Rain Light Freezing Rain
6:19 PM 24.8°F 24.8°F 100% 30.08 in 0.2 miles South 8.1 mph - N/A Fog , Rain Light Freezing Rain
6:58 PM 25.7°F 25.7°F 100% 30.17 in 0.2 miles SSE 5.8 mph - 0.00 in Fog , Rain Light Freezing Rain
7:18 PM 26.6°F 26.6°F 100% 30.09 in 0.2 miles SSE 6.9 mph - N/A Fog , Rain Light Freezing Rain
7:23 PM 26.6°F 26.6°F 100% 30.09 in 0.2 miles SSE 5.8 mph - N/A Fog , Rain Light Freezing Rain
7:43 PM 26.6°F 26.6°F 100% 30.09 in 0.2 miles SSE 4.6 mph - N/A Fog , Rain Light Freezing Rain
7:58 PM 26.6°F 26.6°F 100% 30.18 in 0.2 miles SW 4.6 mph - 0.00 in Fog , Rain Light Freezing Rain
8:03 PM 26.6°F 26.6°F 100% 30.09 in 0.5 miles SSW 4.6 mph - N/A Fog , Rain Light Freezing Rain
8:08 PM 26.6°F 26.6°F 100% 30.09 in 0.5 miles South 4.6 mph - N/A Fog , Rain Light Freezing Rain
8:13 PM 26.6°F 26.6°F 100% 30.09 in 0.5 miles South 5.8 mph - N/A Fog , Rain Light Freezing Rain
8:18 PM 26.6°F 26.6°F 100% 30.09 in 0.5 miles South 5.8 mph - N/A Fog , Rain Light Freezing Rain
8:23 PM 26.6°F 26.6°F 100% 30.10 in 0.5 miles South 5.8 mph - N/A Fog , Rain Light Freezing Rain
8:28 PM 26.6°F 26.6°F 100% 30.09 in 0.8 miles South 8.1 mph - N/A Rain Light Freezing Rain
8:48 PM 28.4°F 28.4°F 100% 30.09 in 0.5 miles South 6.9 mph - N/A Fog , Rain Light Freezing Rain
8:58 PM 27.5°F 27.5°F 100% 30.18 in 0.5 miles South 6.9 mph - 0.00 in Fog , Rain Light Freezing Rain
9:03 PM 28.4°F 28.4°F 100% 30.10 in 0.8 miles South 6.9 mph - N/A Rain Light Freezing Rain
9:08 PM 28.4°F 28.4°F 100% 30.10 in 1.0 miles South 6.9 mph - N/A Rain Light Freezing Rain
9:13 PM 28.4°F 28.4°F 100% 30.10 in 1.2 miles SSE 5.8 mph - N/A Rain Light Freezing Rain
9:23 PM 28.4°F 28.4°F 100% 30.10 in 1.0 miles SSE 5.8 mph - N/A Rain Light Freezing Rain
9:38 PM 28.4°F 28.4°F 100% 30.10 in 0.8 miles SSE 4.6 mph - N/A Rain Light Freezing Rain
9:40 PM 28.4°F 28.4°F 100% 30.10 in 0.8 miles SSE 5.8 mph - N/A   Mist
9:45 PM 28.4°F 28.4°F 100% 30.10 in 0.5 miles SSE 4.6 mph - N/A Fog Light Freezing Drizzle
9:58 PM 27.7°F 27.7°F 100% 30.19 in 0.5 miles SSE 4.6 mph - 0.00 in Fog Light Freezing Drizzle
10:13 PM 26.6°F 26.6°F 100% 30.11 in 0.5 miles SSE 4.6 mph - N/A Fog Light Freezing Drizzle
10:18 PM 26.6°F 26.6°F 100% 30.11 in 0.5 miles South 5.8 mph - N/A Fog Light Freezing Drizzle
10:28 PM 26.6°F 26.6°F 100% 30.11 in 0.5 miles South 5.8 mph - N/A Fog Light Freezing Drizzle
10:38 PM 26.6°F 26.6°F 100% 30.11 in 0.5 miles South 4.6 mph - N/A Fog Light Freezing Drizzle
10:58 PM 26.6°F 26.6°F 100% 30.20 in 0.8 miles South 4.6 mph - 0.00 in   Light Freezing Drizzle
11:03 PM 26.6°F 26.6°F 100% 30.11 in 1.0 miles South 3.5 mph - N/A   Light Freezing Drizzle
11:08 PM 26.6°F 26.6°F 100% 30.11 in 0.8 miles South 4.6 mph - N/A   Light Freezing Drizzle
11:38 PM 26.6°F 26.6°F 100% 30.11 in 1.0 miles SSE 4.6 mph - N/A Rain Light Freezing Rain
11:48 PM 26.6°F 26.6°F 100% 30.11 in 0.8 miles SSE 3.5 mph - N/A Rain Light Freezing Rain
11:53 PM 26.6°F 26.6°F 100% 30.11 in 1.0 miles SSE 3.5 mph - N/A Rain Light Freezing Rain
11:58 PM 26.8°F 26.8°F 100% 30.20 in 1.0 miles SSE 3.5 mph - 0.00 in Rain Light Freezing Rain
Moon Phase
Dec. 24 Dec. 28 Jan. 04 Jan. 11 Jan. 18
Sunrise:07:37 AM (PST) Moon Rise:01:38 PM (PST)
Sunset:04:03 PM (PST) Moon Set:04:14 AM (PST)

Copyright © 2014 The Weather Underground, Inc.